Change the Weather History Date:

Friday, February 28, 2014

  Actual Average Record
Temperature  
Mean Temperature 34 °F -  
Max Temperature 48 °F 43 °F 77 °F (2006)
Min Temperature 21 °F 25 °F 12 °F (2009)
Degree Days  
Heating Degree Days 30    
Moisture  
Dew Point 18 °F    
Average Humidity 50    
Maximum Humidity 65    
Minimum Humidity 36    
Precipitation  
Precipitation 0.00 in - - ()
Sea Level Pressure  
Sea Level Pressure 29.90 in    
Wind  
Wind Speed 10 mph (SE)    
Max Wind Speed 17 mph    
Max Gust Speed 23 mph    
Visibility 10 miles    
Events      
Averages and records for this station are not official NWS values.
T = Trace of Precipitation, MM = Missing Value Source: NWS Daily Summary

Daily Weather History Graph

Daily Weather History Graph

Search for Another Location

Airport or City:

Trip Planner

Search our weather history database for the weather conditions in past years. The results will help you decide how hot, cold, wet, or windy it might be!

Date:

Astronomy

Feb. 28, 2014 Rise Set
Actual Time 6:53 AM CST 6:11 PM CST
Civil Twilight 6:26 AM CST 6:38 PM CST
Nautical Twilight 5:55 AM CST 7:09 PM CST
Astronomical Twilight 5:24 AM CST 7:39 PM CST
Moon 6:08 AM CST (2/28) 5:49 PM CST (2/28)
Length of Visible Light 12h 11m
Length of Day
11h 18m
Waning Crescent, 1% of the Moon is Illuminated
Feb 28
Waning Crescent
Mar 1
New
Mar 8
First Quarter
Mar 16
Full
Mar 23
Last Quarter

Hourly Weather History & Observations

Time (CST) Temp. Windchill Dew Point Humidity Pressure Visibility Wind Dir Wind Speed Gust Speed Precip Events Conditions
12:53 AM 23.0 °F 11.7 °F 3.0 °F 42% 29.92 in 10.0 mi East 11.5 mph - N/A   Clear
1:53 AM 21.9 °F 10.4 °F 3.0 °F 44% 29.91 in 10.0 mi East 11.5 mph - N/A   Clear
2:53 AM 21.9 °F 10.4 °F 3.0 °F 44% 29.88 in 10.0 mi ESE 11.5 mph - N/A   Clear
3:53 AM 21.0 °F 10.6 °F 3.9 °F 48% 29.86 in 10.0 mi ESE 9.2 mph - N/A   Clear
4:53 AM 21.9 °F 12.5 °F 5.0 °F 48% 29.86 in 10.0 mi ESE 8.1 mph - N/A   Clear
5:53 AM 21.9 °F 11.0 °F 6.1 °F 51% 29.85 in 10.0 mi ESE 10.4 mph - N/A   Clear
6:53 AM 23.0 °F 11.7 °F 9.0 °F 55% 29.84 in 10.0 mi ESE 11.5 mph - N/A   Clear
7:53 AM 26.1 °F 15.6 °F 12.0 °F 55% 29.83 in 10.0 mi ESE 11.5 mph - N/A   Clear
8:53 AM 30.9 °F 20.7 °F 15.1 °F 52% 29.87 in 10.0 mi SE 13.8 mph - N/A   Partly Cloudy
9:53 AM 37.0 °F 28.1 °F 18.0 °F 46% 29.88 in 10.0 mi SE 15.0 mph - N/A   Mostly Cloudy
10:53 AM 43.0 °F 36.0 °F 19.9 °F 40% 29.86 in 10.0 mi SSE 13.8 mph 23.0 mph N/A   Partly Cloudy
11:53 AM 46.9 °F - 21.9 °F 37% 29.86 in 10.0 mi South 17.3 mph - N/A   Clear
12:53 PM 48.9 °F - 23.0 °F 36% 29.84 in 10.0 mi South 15.0 mph - N/A   Scattered Clouds
1:53 PM 48.0 °F - 24.1 °F 39% 29.82 in 10.0 mi South 17.3 mph 23.0 mph N/A   Mostly Cloudy
2:53 PM 45.0 °F 39.3 °F 23.0 °F 42% 29.85 in 10.0 mi SSE 11.5 mph - N/A   Overcast
3:53 PM 44.1 °F 40.1 °F 24.1 °F 45% 29.88 in 10.0 mi South 6.9 mph - N/A   Overcast
4:53 PM 44.1 °F 39.5 °F 25.0 °F 47% 29.88 in 10.0 mi SSE 8.1 mph - N/A   Overcast
5:53 PM 42.1 °F 37.7 °F 26.1 °F 53% 29.88 in 10.0 mi SSE 6.9 mph - N/A   Overcast
6:53 PM 41.0 °F 38.0 °F 26.1 °F 55% 29.91 in 10.0 mi SSE 4.6 mph - N/A   Overcast
7:53 PM 39.9 °F - 26.1 °F 58% 29.94 in 10.0 mi Calm Calm - N/A   Overcast
8:53 PM 39.0 °F - 26.1 °F 60% 29.96 in 10.0 mi Calm Calm - N/A   Overcast
9:17 PM 39.0 °F 36.8 °F 27.0 °F 62% 29.95 in 10.0 mi North 3.5 mph - N/A   Overcast
9:53 PM 39.9 °F - 27.0 °F 60% 29.97 in 10.0 mi Calm Calm - N/A   Overcast
10:34 PM 37.9 °F - 27.0 °F 65% 29.98 in 10.0 mi Calm Calm - N/A   Overcast
10:53 PM 39.0 °F - 27.0 °F 62% 30.01 in 10.0 mi Calm Calm - N/A   Overcast
11:53 PM 34.0 °F 24.2 °F 21.9 °F 61% 30.04 in 10.0 mi NNW 15.0 mph - N/A   Overcast